Wind_Speed
12 12 12 12 12 13 13 12 12 12 11 11 11 11 11 11 11 11 11 11 11 11 11 11 11 11 11 11 10 9 9 9 9 9 9 9 9 8 8 8 9 8 8
13 13 13 13 14 14 13 13 12 12 12 12 12 12 12 12 11 11 12 12 12 11 12 12 12 12 12 12 12 11 11 11 11 11 10 10 10 10 10 10 10 10 10
15 14 14 14 14 15 15 14 14 13 13 13 13 14 13 12 12 12 12 12 13 13 12 12 13 13 13 13 13 13 13 13 13 13 12 11 11 11 11 11 11 11 11
16 16 16 16 16 16 16 15 15 15 15 14 14 15 14 13 13 13 13 13 13 14 14 13 14 14 14 15 14 14 14 14 14 14 13 13 13 13 12 12 12 12 12
18 18 17 17 17 18 18 17 16 16 16 16 15 16 16 15 15 15 15 15 14 14 15 15 15 15 16 16 16 15 14 14 15 15 15 14 14 14 14 14 14 14 13
19 19 18 18 19 19 19 18 18 18 18 18 17 17 17 17 16 16 17 17 16 16 16 17 17 17 17 17 17 17 16 16 15 16 16 16 15 15 15 15 15 15 15
21 20 20 19 20 20 19 19 20 20 20 19 19 19 19 18 18 18 18 18 18 17 17 18 18 18 18 18 18 18 18 17 17 17 17 17 17 17 16 16 16 16 16
23 22 22 21 21 21 21 21 21 22 22 21 21 21 21 21 20 20 20 20 19 20 19 19 19 19 19 19 19 19 19 20 19 18 18 18 18 18 17 17 17 17 17
25 24 24 23 23 23 23 23 23 23 23 23 23 23 23 23 22 22 21 21 21 21 21 21 21 20 21 20 21 21 20 21 20 20 20 19 19 19 19 19 19 18 18
27 26 25 25 25 25 25 25 25 24 24 24 24 25 25 25 24 23 23 23 23 23 22 22 22 21 21 21 22 22 22 22 22 22 22 22 21 21 21 21 20 20 20
29 28 28 27 27 27 27 26 26 26 26 25 25 26 26 26 26 25 25 24 24 24 24 24 23 23 23 23 23 23 24 24 24 24 24 24 24 23 23 23 22 22 22
31 30 30 29 29 29 29 28 28 28 27 27 27 27 27 27 27 27 27 26 26 26 26 25 25 24 24 25 24 24 25 25 25 25 25 26 26 26 25 25 25 24 24
33 32 32 31 31 31 31 30 30 29 29 29 29 29 29 29 29 28 28 28 28 28 27 26 26 26 26 26 26 26 26 27 27 27 27 27 27 28 28 27 27 27 27
35 34 34 33 33 33 32 32 32 31 31 31 30 31 31 31 31 31 30 30 30 29 28 28 28 28 28 28 28 28 28 28 29 29 29 29 29 29 29 29 30 29 29
37 36 36 35 35 35 34 33 33 33 33 32 32 33 33 33 32 33 32 31 31 31 30 30 30 30 31 31 31 30 30 30 31 31 31 32 32 31 31 31 32 32 32
39 38 38 38 37 37 36 36 35 35 35 35 35 35 34 34 33 34 34 34 33 33 32 32 32 32 32 33 33 33 33 33 33 33 33 33 33 34 33 33 33 33 34
41 40 40 40 40 39 39 39 38 38 37 36 37 37 37 36 36 37 37 36 35 35 34 34 35 35 35 35 35 35 35 35 36 36 36 36 36 36 36 36 36 36 36
42 42 42 42 42 41 41 41 41 40 39 39 39 39 39 39 39 39 39 38 38 37 37 38 38 38 38 38 38 38 38 38 38 38 38 39 39 39 39 39 38 38 38
43 43 43 44 44 43 42 42 41 41 41 40 41 41 41 41 41 41 41 40 41 40 41 41 41 41 40 41 41 40 40 40 40 41 41 41 42 42 42 42 42 41 41
44 44 45 45 44 44 43 43 42 41 41 41 42 42 42 43 43 43 43 42 43 43 44 44 44 43 43 43 43 43 43 42 42 43 43 43 43 43 44 44 44 44 43
45 45 44 45 45 45 45 45 44 43 43 43 43 43 44 43 43 44 44 45 44 45 46 46 46 46 46 46 46 46 46 45 45 45 45 45 45 45 45 45 46 46 45
46 45 45 45 46 46 46 46 46 45 45 45 45 45 45 45 45 45 45 46 46 47 47 47 48 48 48 48 48 48 48 47 47 47 47 47 47 47 47 47 47 47 47
45 46 46 46 47 47 47 47 47 47 47 47 47 47 47 47 47 47 47 47 47 47 48 48 49 49 49 50 50 49 49 49 49 48 48 48 48 48 49 49 49 49 49
46 47 47 47 47 48 49 49 49 50 49 49 48 49 49 49 50 49 50 50 49 49 49 49 49 50 51 51 51 50 50 50 49 49 49 49 49 50 50 50 51 50 50
46 47 48 48 48 48 49 49 50 50 50 50 50 50 50 51 51 51 52 52 52 51 51 51 52 52 52 52 53 52 52 52 51 51 51 51 51 52 51 51 52 52 52
46 47 48 48 49 49 50 50 51 51 51 51 52 52 52 52 53 52 53 54 54 54 53 53 54 54 54 54 55 55 55 54 54 53 53 52 52 52 53 53 54 54 55
Wind_Direction
258 259 258 258 258 257 256 253 254 255 254 251 250 250 253 254 247 246 247 245 246 245 244 243 241 241 241 240 241 240 241 240 235 234 231 228 225 224 223 223 224 223 225
257 257 258 258 258 257 255 252 251 253 253 252 253 254 253 254 251 250 250 249 247 247 247 247 246 244 243 244 245 245 243 244 242 240 239 236 232 230 230 230 229 228 229
257 257 255 255 256 256 254 252 253 253 253 253 254 255 254 255 254 253 252 251 250 250 250 247 246 246 247 247 248 249 247 246 246 244 242 242 241 239 235 233 233 233 234
256 256 255 255 256 255 253 252 252 253 252 252 254 254 253 253 251 253 252 251 251 251 250 249 247 247 248 248 249 251 249 246 246 244 243 244 244 243 241 240 239 239 240
256 255 254 255 255 255 253 251 251 253 252 253 253 253 253 252 250 251 252 252 251 251 250 250 249 249 249 249 250 251 250 248 246 244 243 244 245 244 243 244 245 245 247
255 255 254 255 256 255 253 251 253 253 253 255 254 253 253 253 251 251 252 252 252 252 251 251 251 250 251 251 251 250 249 248 246 245 244 245 245 245 245 247 248 248 248
256 255 255 255 256 257 255 254 255 256 256 258 257 256 254 253 251 250 252 252 252 251 252 252 251 250 251 251 251 249 248 245 246 246 245 245 245 245 246 247 248 249 250
258 257 256 255 256 256 257 256 257 257 257 257 258 257 256 255 253 252 252 251 251 251 252 252 253 252 251 251 251 250 249 249 246 245 245 246 248 247 247 249 250 251 251
260 259 258 257 256 255 256 257 257 257 258 257 257 257 256 255 254 253 253 252 251 251 252 252 253 255 253 252 251 250 249 250 246 245 245 246 248 248 249 250 251 252 253
261 260 259 258 257 256 256 256 257 258 260 259 258 257 255 255 254 254 254 254 252 252 252 252 252 254 254 253 252 251 250 249 247 247 246 247 248 249 251 251 253 254 254
260 259 259 258 257 257 256 256 256 257 259 260 259 257 256 254 253 253 254 254 253 252 253 253 253 253 254 253 251 250 250 250 249 249 248 248 249 251 252 253 254 256 256
258 258 257 257 257 257 256 256 257 258 258 258 257 257 255 254 253 252 254 254 253 251 251 252 253 253 253 254 253 251 250 250 251 251 251 251 251 252 253 254 256 257 258
257 256 256 256 256 256 256 257 257 258 259 257 256 255 255 254 253 252 252 253 253 251 250 252 253 254 254 254 254 255 254 252 252 252 253 254 254 254 255 256 257 257 258
256 256 255 255 255 255 256 256 256 258 258 257 255 255 255 254 252 251 251 252 253 253 253 254 255 254 255 256 255 257 257 256 256 254 254 255 256 256 256 256 257 257 258
255 255 255 254 254 255 255 255 255 257 257 256 256 256 255 254 253 250 250 251 253 255 256 257 257 257 258 257 256 256 258 258 257 257 256 256 256 256 257 257 258 258 258
255 255 254 254 254 254 254 255 254 255 256 255 254 254 254 253 254 252 251 251 252 254 256 257 257 258 258 258 257 257 259 259 259 259 258 257 257 256 257 258 258 259 259
255 254 253 253 253 253 254 255 254 255 255 254 253 254 254 255 255 254 252 252 252 253 255 256 257 257 258 258 258 258 259 259 260 260 259 259 258 258 258 258 259 259 260
255 254 253 253 253 253 254 254 255 255 255 255 254 254 255 255 254 254 253 253 253 254 256 256 257 257 258 258 259 259 259 259 259 260 260 260 260 259 259 259 259 260 260
254 255 253 252 253 253 254 254 254 255 255 256 256 256 255 255 255 255 255 255 255 256 257 258 258 258 259 259 259 259 260 261 260 260 261 261 260 260 260 260 260 260 260
254 254 254 253 253 253 253 254 254 255 256 256 257 256 256 256 256 256 256 256 256 257 258 258 258 259 259 260 260 260 261 262 262 262 262 262 261 261 261 261 261 261 261
254 254 254 254 254 254 254 255 255 255 255 256 256 256 256 256 256 256 257 258 258 258 259 259 260 260 261 261 261 261 262 262 262 262 262 261 261 261 260 261 261 261 262
254 254 254 255 255 255 255 255 255 254 255 256 257 256 256 256 256 257 257 258 258 259 259 259 260 260 260 261 262 262 262 262 262 262 262 262 261 261 261 261 261 261 262
256 256 255 256 256 256 256 256 256 256 256 256 256 257 256 256 257 258 258 259 260 260 260 260 260 261 261 262 263 263 263 263 262 262 262 262 262 261 261 261 261 261 261
257 257 256 256 256 255 255 256 257 257 257 258 257 257 258 258 259 259 260 260 261 261 261 261 262 262 262 263 263 263 263 263 262 262 262 262 262 262 261 262 262 261 261
257 257 256 256 255 255 255 255 256 256 257 257 257 258 259 259 259 259 260 261 261 261 261 262 263 263 263 263 263 263 263 263 263 263 262 262 262 262 262 262 262 262 262
258 257 257 256 255 255 255 254 255 255 256 257 257 258 258 259 260 260 260 260 261 261 263 263 264 263 263 264 264 264 264 264 264 263 262 262 262 263 263 263 263 263 263
Height
5812 5813 5813 5814 5814 5815 5816 5817 5817 5818 5819 5820 5821 5822 5823 5824 5825 5826 5827 5828 5829 5830 5831 5833 5834 5835 5837 5838 5839 5841 5842 5843 5844 5845 5847 5848 5849 5850 5851 5852 5853 5854 5855
5810 5810 5810 5811 5811 5812 5813 5814 5815 5816 5817 5818 5819 5820 5821 5822 5823 5824 5825 5826 5827 5828 5829 5831 5832 5833 5835 5836 5837 5839 5840 5841 5843 5844 5845 5846 5847 5848 5849 5851 5852 5853 5854
5806 5807 5807 5808 5808 5809 5810 5811 5812 5813 5814 5815 5816 5817 5818 5819 5820 5821 5822 5824 5825 5826 5827 5829 5830 5831 5833 5834 5835 5836 5838 5839 5840 5842 5843 5844 5846 5847 5848 5849 5850 5851 5852
5803 5803 5804 5804 5805 5806 5807 5808 5809 5810 5811 5812 5813 5814 5815 5816 5817 5819 5820 5821 5822 5824 5825 5826 5827 5829 5830 5831 5833 5834 5835 5836 5838 5839 5841 5842 5843 5845 5846 5847 5848 5849 5850
5799 5800 5800 5801 5802 5803 5804 5805 5806 5807 5808 5809 5810 5811 5812 5813 5814 5816 5817 5818 5819 5821 5822 5823 5825 5826 5827 5829 5830 5831 5833 5834 5835 5837 5838 5840 5841 5842 5843 5845 5846 5847 5848
5795 5796 5797 5798 5798 5799 5800 5801 5803 5804 5805 5806 5806 5808 5809 5810 5811 5812 5814 5815 5816 5817 5819 5820 5822 5823 5824 5826 5827 5828 5830 5831 5832 5834 5835 5837 5838 5839 5840 5842 5843 5844 5845
5791 5792 5793 5794 5795 5795 5797 5798 5799 5800 5801 5801 5803 5804 5805 5806 5807 5809 5810 5811 5813 5814 5815 5817 5818 5819 5821 5822 5824 5825 5826 5828 5829 5831 5832 5834 5835 5836 5837 5838 5840 5841 5842
5787 5788 5789 5790 5790 5791 5792 5794 5795 5796 5796 5797 5798 5799 5801 5802 5803 5804 5806 5807 5809 5810 5811 5813 5814 5816 5817 5818 5820 5821 5823 5824 5826 5828 5829 5831 5832 5833 5834 5835 5836 5838 5839
5782 5783 5784 5785 5786 5787 5788 5789 5790 5791 5792 5793 5794 5795 5796 5797 5798 5800 5801 5803 5804 5805 5807 5808 5810 5811 5813 5814 5816 5817 5819 5820 5822 5823 5825 5827 5828 5829 5831 5832 5833 5834 5836
5777 5778 5779 5780 5780 5781 5782 5783 5785 5786 5787 5788 5788 5789 5790 5792 5793 5795 5796 5797 5799 5801 5802 5803 5805 5807 5808 5810 5811 5813 5814 5816 5817 5819 5821 5823 5824 5825 5826 5828 5829 5831 5832
5771 5772 5773 5774 5775 5776 5777 5778 5779 5780 5781 5782 5782 5783 5784 5786 5787 5789 5790 5792 5794 5795 5797 5798 5800 5802 5803 5805 5806 5808 5810 5811 5813 5814 5816 5818 5819 5821 5822 5823 5825 5826 5827
5764 5765 5766 5767 5768 5769 5770 5771 5772 5773 5774 5775 5776 5777 5778 5779 5781 5783 5784 5786 5788 5790 5791 5793 5794 5796 5798 5800 5801 5803 5805 5806 5808 5809 5811 5812 5814 5815 5817 5818 5820 5821 5823
5757 5758 5759 5760 5761 5762 5763 5764 5765 5766 5767 5768 5769 5769 5771 5772 5774 5776 5778 5780 5782 5784 5785 5787 5789 5790 5792 5794 5796 5797 5799 5801 5802 5804 5805 5807 5808 5810 5811 5813 5814 5816 5817
5749 5750 5751 5752 5753 5754 5756 5757 5758 5759 5759 5760 5761 5762 5764 5765 5767 5769 5771 5773 5775 5777 5779 5781 5782 5784 5786 5788 5790 5791 5793 5795 5796 5798 5799 5801 5802 5803 5805 5806 5808 5809 5811
5740 5741 5743 5744 5745 5746 5748 5749 5750 5751 5752 5752 5753 5755 5756 5757 5759 5761 5764 5766 5768 5770 5772 5774 5776 5777 5779 5781 5783 5785 5787 5788 5790 5791 5793 5794 5795 5797 5798 5800 5801 5802 5804
5731 5732 5734 5735 5737 5738 5739 5740 5741 5742 5743 5744 5745 5746 5747 5749 5751 5753 5756 5758 5761 5763 5765 5766 5768 5770 5772 5774 5775 5777 5779 5781 5782 5784 5785 5787 5788 5789 5791 5792 5793 5795 5796
5720 5722 5724 5726 5727 5729 5730 5731 5732 5733 5734 5735 5736 5737 5739 5740 5742 5744 5747 5750 5752 5754 5757 5758 5760 5762 5764 5766 5767 5769 5771 5772 5774 5775 5777 5778 5780 5781 5782 5784 5785 5787 5788
5709 5711 5713 5715 5717 5719 5721 5722 5723 5724 5725 5726 5727 5728 5729 5731 5733 5735 5738 5741 5743 5746 5748 5750 5751 5753 5755 5757 5759 5760 5762 5763 5764 5766 5768 5769 5770 5772 5773 5775 5776 5778 5779
5699 5700 5702 5704 5706 5708 5710 5712 5713 5715 5716 5717 5717 5718 5720 5721 5723 5725 5729 5731 5734 5736 5738 5740 5742 5744 5746 5747 5749 5750 5752 5753 5755 5756 5757 5758 5760 5761 5762 5764 5766 5768 5770
5688 5689 5691 5693 5696 5698 5699 5701 5703 5705 5706 5707 5708 5708 5710 5712 5713 5716 5719 5721 5724 5726 5728 5730 5732 5733 5735 5737 5738 5740 5741 5743 5744 5745 5746 5747 5748 5750 5751 5753 5755 5757 5759
5676 5679 5681 5683 5685 5687 5689 5691 5693 5694 5696 5697 5698 5699 5700 5702 5704 5706 5708 5710 5713 5715 5717 5719 5720 5722 5724 5726 5727 5729 5730 5731 5732 5733 5734 5735 5736 5738 5740 5741 5743 5745 5747
5666 5668 5670 5672 5674 5676 5678 5680 5682 5683 5685 5686 5688 5689 5691 5692 5694 5696 5698 5700 5701 5703 5705 5707 5709 5711 5712 5714 5715 5716 5718 5719 5720 5721 5722 5722 5724 5726 5727 5729 5731 5733 5735
5654 5656 5658 5660 5662 5664 5666 5668 5670 5671 5673 5675 5677 5679 5680 5681 5683 5685 5686 5688 5690 5692 5693 5695 5696 5698 5700 5701 5702 5704 5705 5707 5707 5708 5709 5710 5711 5713 5715 5717 5719 5721 5723
5643 5644 5646 5648 5650 5652 5654 5656 5658 5660 5662 5664 5665 5667 5668 5670 5671 5673 5675 5676 5677 5679 5681 5682 5683 5685 5687 5688 5689 5690 5692 5693 5694 5696 5697 5697 5698 5700 5702 5704 5706 5708 5710
5630 5632 5634 5636 5637 5639 5641 5643 5645 5647 5649 5651 5653 5654 5656 5658 5659 5660 5662 5663 5665 5666 5667 5669 5670 5671 5673 5674 5676 5677 5678 5679 5680 5682 5684 5685 5686 5687 5688 5690 5692 5694 5696
5618 5619 5621 5623 5625 5627 5628 5630 5632 5634 5637 5638 5640 5641 5643 5644 5646 5647 5648 5650 5651 5652 5654 5655 5656 5657 5658 5660 5662 5663 5664 5665 5666 5667 5669 5671 5673 5674 5675 5676 5678 5680 5682